TimeCDT,TemperatureF,Dew PointF,Humidity,Sea Level PressureIn,VisibilityMPH,Wind Direction,Wind SpeedMPH,Gust SpeedMPH,PrecipitationIn,Events,Conditions,WindDirDegrees,DateUTC
12:15 AM,50.0,50.0,100,29.97,7.0,WNW,3.5,-,N/A,,Overcast,300,2012-03-25 05:15:00
12:35 AM,50.0,50.0,100,29.97,7.0,WNW,3.5,-,N/A,,Overcast,290,2012-03-25 05:35:00
12:55 AM,50.0,50.0,100,29.96,7.0,West,3.5,-,N/A,,Overcast,280,2012-03-25 05:55:00
1:15 AM,50.0,50.0,100,29.96,7.0,Calm,Calm,-,N/A,,Overcast,0,2012-03-25 06:15:00
1:35 AM,50.0,50.0,100,29.96,7.0,WNW,4.6,-,N/A,,Overcast,290,2012-03-25 06:35:00
1:55 AM,51.8,50.0,94,29.96,7.0,WNW,4.6,-,N/A,,Overcast,290,2012-03-25 06:55:00
2:15 AM,50.0,48.2,94,29.96,7.0,WNW,5.8,-,N/A,,Mostly Cloudy,290,2012-03-25 07:15:00
2:35 AM,50.0,48.2,94,29.96,7.0,WNW,4.6,-,N/A,,Scattered Clouds,290,2012-03-25 07:35:00
2:55 AM,50.0,48.2,94,29.96,5.0,WNW,4.6,-,N/A,,Scattered Clouds,290,2012-03-25 07:55:00
3:15 AM,48.2,48.2,100,29.95,5.0,WNW,3.5,-,N/A,,Scattered Clouds,290,2012-03-25 08:15:00
3:35 AM,50.0,48.2,94,29.95,5.0,WNW,3.5,-,N/A,,Clear,290,2012-03-25 08:35:00
3:55 AM,50.0,48.2,94,29.95,4.0,West,3.5,-,N/A,,Mostly Cloudy,280,2012-03-25 08:55:00
4:15 AM,50.0,50.0,100,29.96,5.0,West,3.5,-,N/A,,Overcast,280,2012-03-25 09:15:00
4:35 AM,50.0,50.0,100,29.96,5.0,Calm,Calm,-,N/A,,Overcast,0,2012-03-25 09:35:00
4:55 AM,50.0,50.0,100,29.97,5.0,WNW,4.6,-,N/A,,Overcast,300,2012-03-25 09:55:00
5:15 AM,51.8,50.0,94,29.98,5.0,WNW,5.8,-,N/A,,Overcast,290,2012-03-25 10:15:00
5:35 AM,51.8,50.0,94,29.98,5.0,WNW,5.8,-,N/A,,Overcast,300,2012-03-25 10:35:00
5:45 AM,51.8,51.8,100,30.00,5.0,WNW,6.9,-,N/A,,Overcast,290,2012-03-25 10:45:00
6:45 AM,51.8,51.8,100,30.00,5.0,WNW,3.5,-,N/A,,Clear,290,2012-03-25 11:45:00
7:45 AM,51.8,51.8,100,30.03,5.0,West,5.8,-,N/A,,Clear,280,2012-03-25 12:45:00
8:45 AM,55.4,53.6,94,30.04,7.0,WNW,5.8,-,N/A,,Clear,300,2012-03-25 13:45:00
9:45 AM,59.0,53.6,82,30.05,10.0,NNE,6.9,-,N/A,,Scattered Clouds,30,2012-03-25 14:45:00
10:45 AM,60.8,53.6,77,30.06,19.0,ENE,6.9,-,N/A,,Scattered Clouds,60,2012-03-25 15:45:00
11:45 AM,60.8,51.8,72,30.06,10.0,ENE,9.2,-,N/A,,Overcast,60,2012-03-25 16:45:00
12:45 PM,57.2,48.2,72,30.07,10.0,ENE,9.2,-,N/A,,Overcast,60,2012-03-25 17:45:00
1:45 PM,55.4,46.4,72,30.07,10.0,NE,11.5,-,N/A,,Mostly Cloudy,50,2012-03-25 18:45:00
2:45 PM,55.4,46.4,72,30.06,10.0,NE,8.1,-,N/A,,Clear,50,2012-03-25 19:45:00
3:45 PM,55.4,46.4,72,30.06,10.0,ENE,9.2,-,N/A,,Clear,60,2012-03-25 20:45:00
4:45 PM,55.4,44.6,67,30.06,10.0,ENE,11.5,-,N/A,,Clear,70,2012-03-25 21:45:00
6:45 PM,50.0,42.8,76,30.08,10.0,East,6.9,-,N/A,,Clear,90,2012-03-25 23:45:00
7:45 PM,42.8,37.4,81,30.12,10.0,ENE,6.9,-,N/A,,Clear,70,2012-03-26 00:45:00
8:45 PM,39.2,33.8,81,30.15,10.0,ENE,16.1,-,N/A,,Clear,60,2012-03-26 01:45:00
9:15 PM,37.4,33.8,87,30.17,10.0,NE,8.1,18.4,N/A,,Clear,50,2012-03-26 02:15:00
9:35 PM,37.4,32.0,81,30.19,10.0,NE,15.0,21.9,N/A,,Clear,40,2012-03-26 02:35:00
9:55 PM,37.4,32.0,81,30.20,10.0,ENE,15.0,24.2,N/A,,Clear,60,2012-03-26 02:55:00
10:15 PM,35.6,32.0,87,30.20,10.0,NE,19.6,-,N/A,,Scattered Clouds,50,2012-03-26 03:15:00
10:35 PM,35.6,32.0,87,30.21,10.0,NE,19.6,26.5,N/A,,Mostly Cloudy,50,2012-03-26 03:35:00
10:55 PM,35.6,32.0,87,30.22,10.0,NE,21.9,29.9,N/A,,Overcast,40,2012-03-26 03:55:00
11:15 PM,35.6,32.0,87,30.22,10.0,ENE,17.3,25.3,N/A,,Overcast,60,2012-03-26 04:15:00
11:35 PM,35.6,32.0,87,30.23,10.0,ENE,20.7,27.6,N/A,,Overcast,60,2012-03-26 04:35:00
11:55 PM,35.6,32.0,87,30.23,10.0,NE,13.8,26.5,N/A,,Overcast,50,2012-03-26 04:55:00